Oscoda, MI

9:02 AM EDT on May 26, 2018 (GMT -0400)
Oscoda-Wurtsmith

Weather History for KOSC - October, 2012

Change the Weather History Date:

Friday, October 5, 2012

  Actual Average Record
Temperature  
Mean Temperature 52 °F -  
Max Temperature 64 °F 60 °F 86 °F (2005)
Min Temperature 40 °F 41 °F 24 °F (2004)
Degree Days  
Heating Degree Days 13    
Growing Degree Days 2 (Base 50)    
Moisture  
Dew Point 38 °F    
Average Humidity 56    
Maximum Humidity 87    
Minimum Humidity 34    
Precipitation  
Precipitation 0.00 in - - ()
Sea Level Pressure  
Sea Level Pressure 29.92 in    
Wind  
Wind Speed 13 mph (WSW)    
Max Wind Speed 21 mph    
Max Gust Speed 26 mph    
Visibility 10 miles    
Events      
Averages and records for this station are not official NWS values.
T = Trace of Precipitation, MM = Missing Value Source: NWS Daily Summary

Daily Weather History Graph

Daily Weather History Graph

Search for Another Location

Airport or City:

Astronomy

Oct. 05, 2012 Rise Set
Actual Time 7:36 AM EDT 7:05 PM EDT
Civil Twilight 7:07 AM EDT 7:34 PM EDT
Nautical Twilight 6:34 AM EDT 8:08 PM EDT
Astronomical Twilight 6:00 AM EDT 8:42 PM EDT
Moon 10:17 PM EDT (10/5) 12:54 PM EDT (10/5)
Length of Visible Light 12h 27m
Length of Day
11h 29m
Waning Gibbous, 74% of the Moon is Illuminated
Oct 5
Waning Gibbous
Oct 8
Last Quarter
Oct 15
New
Oct 21
First Quarter
Oct 29
Full

Hourly Weather History & Observations

Time (EDT) Temp. Windchill Dew Point Humidity Pressure Visibility Wind Dir Wind Speed Gust Speed Precip Events Conditions
12:13 AM 64.4 °F - 55.8 °F 73% 29.88 in 10.0 mi SW 12.7 mph 20.7 mph N/A   Overcast
12:33 AM 63.7 °F - 55.6 °F 75% 29.89 in 10.0 mi SW 13.8 mph - N/A   Overcast
12:53 AM 63.1 °F - 55.0 °F 75% 29.88 in 10.0 mi SW 12.7 mph 23.0 mph N/A   Overcast
1:13 AM 62.6 °F - 54.7 °F 75% 29.89 in 10.0 mi WSW 16.1 mph 19.6 mph N/A   Overcast
1:33 AM 61.9 °F - 54.5 °F 77% 29.89 in 10.0 mi WSW 12.7 mph - N/A   Mostly Cloudy
1:53 AM 61.7 °F - 52.3 °F 71% 29.90 in 10.0 mi WSW 15.0 mph 18.4 mph N/A   Mostly Cloudy
2:13 AM 61.7 °F - 48.2 °F 61% 29.90 in 10.0 mi West 13.8 mph - N/A   Overcast
2:33 AM 60.8 °F - 46.9 °F 60% 29.91 in 10.0 mi West 13.8 mph - N/A   Overcast
2:53 AM 59.0 °F - 45.5 °F 61% 29.91 in 10.0 mi West 13.8 mph 23.0 mph N/A   Scattered Clouds
3:13 AM 58.1 °F - 45.1 °F 62% 29.91 in 10.0 mi West 13.8 mph 17.3 mph N/A   Clear
3:33 AM 57.2 °F - 44.4 °F 62% 29.91 in 10.0 mi West 13.8 mph 24.2 mph N/A   Clear
3:53 AM 55.8 °F - 42.4 °F 61% 29.92 in 10.0 mi West 13.8 mph 20.7 mph N/A   Clear
4:13 AM 54.7 °F - 41.9 °F 62% 29.93 in 10.0 mi West 15.0 mph 20.7 mph N/A   Clear
4:33 AM 53.2 °F - 40.8 °F 63% 29.93 in 10.0 mi West 11.5 mph 18.4 mph N/A   Clear
4:53 AM 52.2 °F - 40.1 °F 64% 29.93 in 10.0 mi West 10.4 mph - N/A   Clear
5:13 AM 51.1 °F - 39.4 °F 64% 29.94 in 10.0 mi West 9.2 mph - N/A   Clear
5:33 AM 50.0 °F - 39.6 °F 67% 29.95 in 10.0 mi West 10.4 mph 16.1 mph N/A   Clear
5:54 AM 48.4 °F - 38.8 °F 70% 29.96 in 10.0 mi WSW 10.4 mph - N/A   Clear
6:13 AM 48.9 °F - 39.0 °F 69% 29.96 in 10.0 mi West 12.7 mph 18.4 mph N/A   Clear
6:33 AM 47.3 °F - 38.7 °F 72% 29.95 in 10.0 mi WSW 8.1 mph - N/A   Clear
6:53 AM 46.0 °F 41.0 °F 38.5 °F 75% 29.97 in 10.0 mi WSW 10.4 mph - N/A   Clear
7:13 AM 46.4 °F 41.1 °F 38.3 °F 73% 29.97 in 10.0 mi West 11.5 mph 17.3 mph N/A   Clear
7:33 AM 45.7 °F 42.0 °F 38.1 °F 75% 29.97 in 10.0 mi West 6.9 mph 16.1 mph N/A   Clear
7:54 AM 42.6 °F 38.4 °F 37.0 °F 81% 29.98 in 10.0 mi WSW 6.9 mph - N/A   Clear
8:13 AM 40.6 °F 34.8 °F 37.0 °F 87% 29.98 in 10.0 mi West 9.2 mph - N/A   Clear
8:33 AM 46.0 °F 41.9 °F 38.5 °F 75% 29.97 in 10.0 mi West 8.1 mph - N/A   Clear
8:53 AM 46.6 °F - 39.2 °F 75% 29.98 in 10.0 mi SW 8.1 mph - N/A   Clear
9:13 AM 47.5 °F - 39.4 °F 73% 29.98 in 10.0 mi WSW 11.5 mph - N/A   Clear
9:33 AM 48.7 °F - 39.4 °F 70% 29.98 in 10.0 mi WSW 13.8 mph - N/A   Clear
9:53 AM 49.5 °F - 38.7 °F 66% 29.98 in 10.0 mi WSW 12.7 mph 18.4 mph N/A   Clear
10:13 AM 50.7 °F - 38.3 °F 62% 29.97 in 10.0 mi West 11.5 mph - N/A   Clear
10:33 AM 50.0 °F - 37.6 °F 62% 29.97 in 10.0 mi WSW 11.5 mph - N/A   Clear
10:53 AM 51.6 °F - 37.2 °F 58% 29.97 in 10.0 mi WSW 13.8 mph 17.3 mph N/A   Clear
11:13 AM 52.9 °F - 36.9 °F 55% 29.96 in 10.0 mi WSW 15.0 mph 20.7 mph N/A   Clear
11:33 AM 54.1 °F - 37.4 °F 53% 29.96 in 10.0 mi West 11.5 mph 20.7 mph N/A   Clear
11:53 AM 54.5 °F - 37.0 °F 52% 29.96 in 10.0 mi WSW 15.0 mph 20.7 mph N/A   Clear
12:13 PM 55.9 °F - 36.9 °F 49% 29.95 in 10.0 mi WSW 13.8 mph 18.4 mph N/A   Clear
12:33 PM 56.5 °F - 35.8 °F 46% 29.95 in 10.0 mi West 15.0 mph 21.9 mph N/A   Clear
12:53 PM 56.7 °F - 35.1 °F 44% 29.95 in 10.0 mi WSW 16.1 mph 24.2 mph N/A   Clear
1:13 PM 58.1 °F - 33.3 °F 39% 29.94 in 10.0 mi West 17.3 mph 26.5 mph N/A   Clear
1:33 PM 58.1 °F - 32.7 °F 38% 29.94 in 10.0 mi West 16.1 mph 23.0 mph N/A   Clear
1:53 PM 59.0 °F - 32.9 °F 37% 29.93 in 10.0 mi WSW 12.7 mph 23.0 mph N/A   Clear
2:13 PM 59.0 °F - 32.0 °F 36% 29.91 in 10.0 mi WSW 20.7 mph 24.2 mph N/A   Clear
2:33 PM 59.0 °F - 31.5 °F 35% 29.91 in 10.0 mi West 15.0 mph 21.9 mph N/A   Clear
2:53 PM 60.1 °F - 31.6 °F 34% 29.91 in 10.0 mi WSW 17.3 mph 21.9 mph N/A   Clear
3:13 PM 58.5 °F - 31.1 °F 35% 29.91 in 10.0 mi WSW 16.1 mph 23.0 mph N/A   Clear
3:33 PM 59.2 °F - 30.9 °F 34% 29.91 in 10.0 mi West 13.8 mph - N/A   Clear
3:53 PM 58.1 °F - 31.1 °F 36% 29.90 in 10.0 mi WSW 10.4 mph 21.9 mph N/A   Clear
4:13 PM 57.7 °F - 31.5 °F 37% 29.90 in 10.0 mi WSW 13.8 mph - N/A   Clear
4:33 PM 57.4 °F - 31.6 °F 38% 29.89 in 10.0 mi West 13.8 mph - N/A   Clear
4:53 PM 57.4 °F - 30.7 °F 36% 29.88 in 10.0 mi WSW 11.5 mph - N/A   Clear
5:13 PM 57.2 °F - 31.8 °F 38% 29.88 in 10.0 mi WSW 15.0 mph - N/A   Clear
5:33 PM 56.1 °F - 29.7 °F 36% 29.88 in 10.0 mi WSW 15.0 mph 20.7 mph N/A   Clear
5:53 PM 55.8 °F - 29.7 °F 37% 29.88 in 10.0 mi West 12.7 mph 18.4 mph N/A   Clear
6:13 PM 55.4 °F - 30.4 °F 38% 29.88 in 10.0 mi WSW 10.4 mph - N/A   Clear
6:34 PM 54.7 °F - 32.0 °F 42% 29.88 in 10.0 mi SW 5.8 mph - N/A   Clear
6:53 PM 54.0 °F - 32.0 °F 43% 29.89 in 10.0 mi SW 12.7 mph - N/A   Clear
7:13 PM 53.4 °F - 32.0 °F 44% 29.88 in 10.0 mi WSW 10.4 mph - N/A   Clear
7:34 PM 52.5 °F - 32.7 °F 47% 29.89 in 10.0 mi WSW 6.9 mph - N/A   Clear
7:53 PM 52.2 °F - 33.3 °F 49% 29.89 in 10.0 mi SW 8.1 mph - N/A   Scattered Clouds
8:13 PM 51.8 °F - 32.4 °F 48% 29.89 in 10.0 mi WSW 8.1 mph - N/A   Overcast
8:33 PM 51.8 °F - 31.6 °F 46% 29.89 in 10.0 mi WSW 12.7 mph - N/A   Overcast
8:53 PM 51.6 °F - 31.8 °F 47% 29.89 in 10.0 mi WSW 12.7 mph - N/A   Overcast
9:13 PM 51.1 °F - 33.4 °F 51% 29.89 in 10.0 mi West 17.3 mph 24.2 mph N/A   Overcast
9:33 PM 50.4 °F - 34.0 °F 53% 29.89 in 10.0 mi West 13.8 mph 19.6 mph N/A   Scattered Clouds
9:53 PM 49.8 °F - 34.5 °F 56% 29.89 in 10.0 mi WSW 11.5 mph - N/A   Clear
10:13 PM 48.6 °F - 34.9 °F 59% 29.88 in 10.0 mi WSW 8.1 mph - N/A   Clear
10:33 PM 48.9 °F - 35.2 °F 59% 29.88 in 10.0 mi SW 9.2 mph - N/A   Clear
10:53 PM 48.6 °F - 35.2 °F 60% 29.88 in 10.0 mi WSW 10.4 mph - N/A   Clear
11:13 PM 48.2 °F - 35.6 °F 62% 29.87 in 10.0 mi SW 9.2 mph - N/A   Clear
11:33 PM 48.2 °F - 35.8 °F 62% 29.86 in 10.0 mi SW 8.1 mph - N/A   Clear
11:53 PM 48.0 °F - 35.8 °F 63% 29.86 in 10.0 mi SW 8.1 mph - N/A   Clear